Airfield :
LOGIN :

Register | Disclaimer

   EN    FR    IT 

 










Legend :    VFR   Marginal VFR   IFR   Intensive IFR   Very Intensive IFR
Visi :
Ceiling :
>= 8 km
>= 3000ft
5 to 8 km
1000 to 3000 ft
1500m to 5 km
500 to 1000 ft
800 to 1500m
200 to 500 ft
< 800m
< 200 ft
Symbols :   Thunderstorms  Fog  Heavy snow  Heavy precipitations  Wind > 20 kt
SIGMETs :     Misc.  Thunderstorms  Icing  Turbulence  Mountain Waves  Volcanic Ashes







- Airport Elevation : 1966 ft
- IATA code : SGE


EDGS - Siegerland

CURRENT METAR :
  • 190750Z 06007KT 9999 FEW023 15/10 Q1005

EXPIRED METARs :
  • 190720Z 13005KT 100V160 9999 FEW022 14/10 Q1005
  • 190650Z 10006KT 9999 FEW025 14/09 Q1005
  • 190620Z 13004KT CAVOK 14/10 Q1005
  • 190550Z VRB02KT CAVOK 13/10 Q1005

TAF TAF EDGS
Valid from the 19 at 07:00 until the 19 at 15:00 UTC


190650Z 1907/1915 14003KT 9999 SCT040
BECMG 1909/1912 36005KT
PROB40
TEMPO 1911/1915 02012KT 4000 TSRA BKN020CB
No reported NOTAMs for that airfield.



MET'MAP, your aeronautical weather chart ! - Copyright ORBIFLY December 2007 - Disclaimer

ORBIFLY MET'MAP TEAM :

Programming & Development : Alexandra Zaïnal
Concept & Development : Baudouin d'Aumeries
Co-Development & Prog : Marc-Olivier Méhu
Technical & hardware support : Manuel Goepfert

Contact : metmap@orbifly.com




SOURCES & CREDITS :

   NOAA